Weather History for KTCS - September, 2012

Change the Weather History Date:

Friday, September 14, 2012

  Actual Average Record
Temperature  
Mean Temperature 64 °F -  
Max Temperature 74 °F 85 °F 93 °F (1998)
Min Temperature 53 °F 59 °F 53 °F (2012)
Degree Days  
Heating Degree Days 1    
Month to date heating degree days 11  
Since 1 July heating degree days 11  
Cooling Degree Days 0    
Month to date cooling degree days 138  
Year to date cooling degree days 1919  
Growing Degree Days 13 (Base 50)    
Moisture  
Dew Point 38 °F    
Average Humidity 46    
Maximum Humidity 72    
Minimum Humidity 19    
Precipitation  
Precipitation 0.00 in - 0.17 in (1997)
Month to date precipitation 0.35  
Year to date precipitation 2.56  
Sea Level Pressure  
Sea Level Pressure 30.22 in    
Wind  
Wind Speed 11 mph (NNE)    
Max Wind Speed 23 mph    
Max Gust Speed 30 mph    
Visibility 10 miles    
Events      
T = Trace of Precipitation, MM = Missing Value Source: NWS Daily Summary

Daily Weather History Graph

Daily Weather History Graph

Search for Another Location

Airport or City:

Trip Planner

Search our weather history database for the weather conditions in past years. The results will help you decide how hot, cold, wet, or windy it might be!

Date:

Astronomy

Sep. 14, 2012 Rise Set
Actual Time 6:52 AM MDT 7:15 PM MDT
Civil Twilight 6:27 AM MDT 7:40 PM MDT
Nautical Twilight 5:58 AM MDT 8:09 PM MDT
Astronomical Twilight 5:28 AM MDT 8:39 PM MDT
Moon 5:22 AM MDT (9/14) 6:13 PM MDT (9/14)
Length of Visible Light 13h 13m
Length of Day
12h 23m
Waning Crescent, 2% of the Moon is Illuminated
Sep 14
Waning Crescent
Sep 15
New
Sep 22
First Quarter
Sep 29
Full
Oct 8
Last Quarter

Hourly Weather History & Observations

Time (MDT) Temp. Dew Point Humidity Pressure Visibility Wind Dir Wind Speed Gust Speed Precip Events Conditions
12:53 AM 55.0 °F 46.0 °F 72% 30.28 in 10.0 mi NNE 10.4 mph - N/A   Clear
1:53 AM 54.0 °F 45.0 °F 72% 30.28 in 10.0 mi North 10.4 mph - N/A   Clear
2:53 AM 54.0 °F 45.0 °F 72% 30.27 in 10.0 mi NNE 11.5 mph - N/A   Overcast
3:53 AM 54.0 °F 44.1 °F 69% 30.25 in 10.0 mi NNE 13.8 mph 20.7 mph N/A   Clear
4:53 AM 53.1 °F 44.1 °F 71% 30.25 in 10.0 mi NNE 12.7 mph - N/A   Partly Cloudy
5:53 AM 53.1 °F 44.1 °F 71% 30.26 in 10.0 mi NNE 15.0 mph 20.7 mph N/A   Clear
6:53 AM 53.1 °F 44.1 °F 71% 30.27 in 10.0 mi NNE 17.3 mph 26.5 mph N/A   Clear
7:53 AM 54.0 °F 43.0 °F 66% 30.28 in 10.0 mi NNE 18.4 mph 25.3 mph N/A   Clear
8:53 AM 57.0 °F 43.0 °F 59% 30.28 in 10.0 mi NNE 20.7 mph 28.8 mph N/A   Clear
9:53 AM 60.1 °F 39.9 °F 47% 30.29 in 10.0 mi NNE 18.4 mph 26.5 mph N/A   Clear
10:53 AM 64.0 °F 37.9 °F 38% 30.28 in 10.0 mi North 16.1 mph 23.0 mph N/A   Clear
11:53 AM 66.9 °F 36.0 °F 32% 30.26 in 10.0 mi NE 16.1 mph 23.0 mph N/A   Clear
12:53 PM 69.1 °F 32.0 °F 25% 30.24 in 10.0 mi Variable 5.8 mph 17.3 mph N/A   Clear
1:53 PM 72.0 °F 28.9 °F 20% 30.20 in 10.0 mi NE 9.2 mph 17.3 mph N/A   Clear
2:53 PM 72.0 °F 30.0 °F 21% 30.17 in 10.0 mi ESE 8.1 mph 17.3 mph N/A   Clear
3:53 PM 73.0 °F 28.0 °F 19% 30.14 in 10.0 mi North 9.2 mph 19.6 mph N/A   Clear
4:53 PM 73.0 °F 28.0 °F 19% 30.14 in 10.0 mi NNE 11.5 mph 16.1 mph N/A   Clear
5:53 PM 72.0 °F 27.0 °F 19% 30.14 in 10.0 mi NE 12.7 mph - N/A   Clear
6:10 PM 57.2 °F 48.2 °F 72% - - North - - N/A   Unknown
6:53 PM 70.0 °F 28.0 °F 21% 30.14 in 10.0 mi NE 9.2 mph - N/A   Clear
7:53 PM 66.0 °F 30.0 °F 26% 30.16 in 10.0 mi NNE 8.1 mph - N/A   Clear
8:53 PM 64.0 °F 30.9 °F 29% 30.17 in 10.0 mi NE 6.9 mph - N/A   Clear
9:53 PM 62.1 °F 32.0 °F 32% 30.19 in 10.0 mi ESE 6.9 mph - N/A   Clear
10:53 PM 57.9 °F 44.1 °F 60% 30.21 in 10.0 mi SSW 3.5 mph - N/A   Clear
11:53 PM 57.0 °F 44.1 °F 62% 30.21 in 10.0 mi SW 4.6 mph - N/A   Clear